Regional Weather Roundup
Issued by NWS Wakefield, VA

Home | Current Version | Previous Version | Text Only | Print | Product List | Glossary On
Versions: 1 2 3 4 5 6 7 8 9 10 11 12 13 14 15 16 17 18 19 20 21 22 23 24 25 26 27 28
000
ASUS41 KAKQ 270615
RWRAKQ

REGIONAL WEATHER ROUNDUP
NATIONAL WEATHER SERVICE WAKEFIELD VA
200 AM EDT SAT MAY 27 2017

Note: "fair" indicates few or no clouds below 12,000 feet with no
significant weather and/or obstructions to visibility. * = Denotes
station may not report precipitation (e.g., rain,snow,etc.),
thunder or fog.

VAZ042-051-052>054-056-270700-
NORTHERN VIRGINIA

CITY           SKY/WX    TMP DP  RH WIND       PRES   REMARKS
WASH NATIONAL  MOCLDY    64  57  78 N3        29.92R
DULLES         PTCLDY    56  54  93 E5        29.91F
FORT BELVOIR   CLOUDY    59  57  92 CALM      29.92R
QUANTICO       MOCLDY    60  60 100 NW7       29.93S
FREDERICKSBRG* CLEAR     58  58 100 CALM      29.91S
STAFFORD*      PTCLDY    55  55 100 CALM      29.96S
WARRENTON      PTCLDY    58  55  89 CALM      29.92S
CULPEPER*      PTCLDY    57  56  99 CALM      29.93S
MANASSAS*      MOCLDY    58  56  93 CALM      29.92F
LEESBURG*      PTCLDY    59  57  94 CALM      29.93F
WINCHESTER     PTCLDY    55  54  94 CALM      29.93S
FRONT ROYAL*   CLOUDY    57  55  94 W3        29.92S
LURAY*         CLOUDY    55  54  94 CALM      29.94S
$$

VAZ048-049-060>072-079>083-270700-
CENTRAL AND SOUTH CENTRAL VIRGINIA

CITY           SKY/WX    TMP DP  RH WIND       PRES   REMARKS
RICHMOND       CLEAR     61  57  87 CALM      29.91F
CHESTERFIELD*  NOT AVBL
PETERSBURG*    CLEAR     55  54  97 CALM      29.93S
HANOVER        CLEAR     58  54  86 CALM      29.92F
TAPPAHANNOCK*  CLEAR     57  57 100 CALM      29.93S
QUINTON*       FAIR      58  58 100 NE5       29.91S
CHARLOTTSVILLE CLEAR     59  55  87 NE3       29.93R
GORDONSVILLE*  CLEAR     55  55 100 CALM      29.92S
ORANGE*        CLEAR     55  54  94 CALM      29.92S
LOUISA*        CLEAR     57  55  94 CALM      29.92R
BUMPASS*       FAIR      56  56 100 CALM      29.91F
FARMVILLE*     CLEAR     58  55  90 SW5       29.92S
CREWE*         FAIR      56  52  86 CALM      29.92F
FORT PICKETT*  FAIR      60  57  88 CALM      29.93S
CHASE CITY*    FAIR      59  58  94 CALM      29.94S
CLARKSVILLE*   FAIR      59  59 100 SW3       29.94S
SOUTH HILL*    CLEAR     58  58  99 CALM      29.99F
LAWRENCEVILLE* FAIR      59  57  92 CALM      29.93F
EMPORIA*       CLEAR     55  55 100 CALM      29.94F
$$

VAZ088>098-270700-
SOUTHEAST VIRGINIA

CITY           SKY/WX    TMP DP  RH WIND       PRES   REMARKS
NORFOLK        CLEAR     65  57  75 SW5       29.91F
VIRGINIA BEACH CLEAR     61  56  83 SW3       29.91S
NORFOLK NAVAL  CLEAR     63  57  81 W6        29.93F
WEST POINT*    CLEAR     58  57  97 CALM      29.93S
SALUDA*        FAIR      59  58  99 CALM      29.92S
NEWPORT NEWS   CLEAR     60  58  92 CALM      29.92S
LANGLEY AFB    CLEAR     63  59  87 CALM      29.90F
FORT EUSTIS    CLEAR     62  58  86 CALM      29.90S
WILLIAMSBURG*  CLEAR     63  63 100 CALM      29.93S
HR EXEC AP*    FAIR      55  54  94 CALM      29.91F
FRANKLIN*      CLEAR     59  57  94 CALM      29.93F
US460-WAKEFLD  CLEAR     59  58  96 CALM      29.92F
$$

VAZ020-022-025-037-045-270700-
WEST CENTRAL AND SOUTHWEST VIRGINIA

CITY           SKY/WX    TMP DP  RH WIND       PRES   REMARKS
STAUNTON*      CLEAR     55  52  90 CALM      29.97R
WAYNESBORO*    CLEAR     58  55  89 CALM      29.96S
HOT SPRINGS VA CLOUDY    57  45  62 W14       30.04R
LYNCHBURG      CLEAR     56  54  93 SW3       29.96S
DANVILLE       CLEAR     58  58 100 CALM      29.95S
SOUTH BOSTON*  FAIR      57  56  95 CALM      29.94S
MARTINSVILLE   CLEAR     54  53  97 CALM      29.99F FOG
ROANOKE        CLEAR     61  54  77 W3        30.00R
BLACKSBURG     CLEAR     55  53  94 CALM      30.05R
DUBLIN*        PTCLDY    59  51  75 SW6       30.03S
MARION*        CLEAR     58  54  86 CALM      30.07S
HILLSVILLE*    CLEAR     58  49  72 CALM      30.04S
RICHLANDS*     MOCLDY    64  55  74 W6        30.05S
WISE*          CLOUDY    64  55  72 CALM      30.05F
ABINGDON*      CLOUDY    59  57  93 CALM      30.05F
$$

MDZ021>025-VAZ099-100-270700-
SOUTHERN MARYLAND AND THE DELMARVA PENINSULA

CITY           SKY/WX    TMP DP  RH WIND       PRES   REMARKS
PATUXENT RIVER CLOUDY    59  59 100 W5        29.91S
BAY BRIDGE APT CLOUDY    63  57  82 CALM      29.91S
LEONARDTOWN    PTCLDY    57  55  94 CALM      29.93S
DOVER          CLEAR     61  58  88 W6        29.88S
GEORGETOWN     CLEAR     64  54  69 W3        29.90S
EASTON         CLOUDY    65  55  68 CALM      29.94S
CAMBRIDGE      CLOUDY    61  57  88 CALM      29.90F
SALISBURY      CLEAR     64  54  69 CALM      29.90S
OCEAN CITY     CLEAR     62  54  74 NW5       29.91S
WALLOPS ISLAND CLEAR     63  56  78 W3        29.91S
ACCOMACK*      CLEAR     60  58  92 CALM      29.92S
$$

NCZ012>017-030>032-270700-
NORTH CENTRAL AND EASTERN NORTH CAROLINA

CITY           SKY/WX    TMP DP  RH WIND       PRES   REMARKS
ROANOKE RAPIDS FAIR      59  59 100 S3        29.93F
RALEIGH        PTCLDY    65  59  81 CALM      29.95F
ELIZABETH CITY CLEAR     64  61  90 SW6       29.93F
AHOSKIE*       NOT AVBL
EDENTON*       CLEAR     68  63  85 CALM      29.95S
CURRITUCK*     CLEAR     66  60  81 CALM      29.94S
KILL DEVIL HLS CLEAR     69  61  76 CALM      29.93S
MANTEO         CLEAR     69  62  78 W3        29.94F
CAPE HATTERAS  CLEAR     72  68  87 SW6       29.95F
TARBORO*       NOT AVBL
GOLDSBORO      NOT AVBL
WASHINGTON     CLEAR     65  59  83 CALM      29.95F
GREENVILLE     CLEAR     63  61  94 CALM      29.97S
NEW BERN       CLEAR     62  60  93 CALM      29.97F
WILMINGTON     CLEAR     68  63  84 CALM      29.98S
$$

VAZ048-270700-
ELSEWHERE

CITY           SKY/WX    TMP DP  RH WIND       PRES   REMARKS
HARRISBURG PA  CLEAR     59  52  77 NW6       29.88S
BALTIMORE      MOCLDY    55  55 100 W3        29.91R
ANNAPOLIS      CLOUDY    63  59  87 CALM      29.90S
ANDREWS AFB    CLOUDY    58  55  89 CALM      29.91R
PHILADELPHIA   PTCLDY    64  54  69 W6        29.87S
HENDERSON NC   CLEAR     57  55  93 SW3       29.94F
GREENSBORO     PTCLDY    63  58  83 SW3       29.96F
ROCKY MOUNT    CLEAR     62  60  93 S3        29.95S
$$

VAZ100-270700-
MARINE

STATION/POSITION TIME  TEMP    WIND        PRES    WAVE   SWELL
                       AIR SEA DIR/SP/G            HT/PER HT/PER
                 (UTC) (F)     (DEG/KT/KT) (MB)    (FT/S) (FT/S)
CAPE MAY NJ      0548   64 63  300/ 11/ 18 1011.4R
LEWES DE         0548   65 64  280/ 10/ 12 1012.0R
15NM E FENWICK I 0550   62 58  270/ 10/ 12 1012.4R   3/ 8   3/ 8
WACHAPREAGUE VA  0548   63 69  300/  1/  2 1012.7F
THOMAS POINT MD  0600   64 64  310/  4/  5   N/A
GOOSES REEF MD   0600   67 60  300/  2/  4 1013.4    1
COVE POINT MD    0548   67     320/  3/  5 1013.3F
SOLOMONS ISLAND  0542   64 67   CALM  /  2   N/A
BISHOPS HEAD MD  0548   66 69  320/  4/  4 1013.0F
PINEY POINT MD   0548           CALM  /  1   N/A
POTOMAC MD       0550   67     230/  2/  2 1012.0F
CAMBRIDGE MD     0542   64 68                N/A
LEWISETTA VA     0548   64 69  240/  2/  2 1012.9F
RAPPAHANNOCK LGT 0548          130/  2/  2 1013.6F
STINGRAY PT      0550   68     280/  2/  2 1012.6F
YORK RVR RNG VA  0548   70     350/  3/  4 1012.3F
YORKTOWN VA      0548   65 69  200/  1/  1 1012.6F
JAMESTOWN VA     0550   68     230/  2/  4   N/A
DOMINION TERM VA 0548   70     270/  4/  6 1013.2F
KIPTOPEKE VA     0548      68  100/  2/  2   N/A
CHES BAY BRIDGE  0548   70 65  250/  7/  7 1012.8F
CAPE HENRY VA    0548   70     230/  7/  8   N/A
WILLOUBY STN VA  0548   69     240/  6/  6 1012.9F
S CRANEY ISL VA  0548   68     230/  3/  5 1013.0S
CAPE HENRY BUOY  0542      63                N/A     2/ 8
1ST LANDING BUOY 0600   69 66              1013.0    1
CAPE CHARLES BUO 0551      63                N/A     1/ 8
64NM E OF VA BCH 0550   66 62  270/  4/  4 1013.9R   3/ 7   3/ 7
DUCK PIER NC     0548   72 63  240/  8/ 10 1013.1F
44100 DUCK FRF   0535      65                N/A     2/ 8
44056 DUCK FRF   0500      63                N/A     1/ 9
OREGON INLET NC  0542   70 70  220/  6/  7 1013.6F
HATTERAS NC      0548   71 73  230/  5/  7 1014.1F
DIAMOND SHLS NC  0550   75 78  260/ 12/ 14 1014.2F   5/ 7   3/ 7
CAPE LOOKOUT NC  0500   72     250/  8/ 10 1014.7F
$$




USA.gov is the U.S. government's official web portal to all federal, state and local government web resources and services.